Wetterdaten: Montag, 13.07.2015
Datum Zeit Temp. A. Feuchte A. Luftdruck Regen Wind Richtung Richtung Sonnenschein ET UV Solar Taupunkt Windchill Windben Empfang
13.07.2015 00:00 20,3 C 53 % 1013,5 hPa 0,0 l/m 1,4 km/h (1 Bft) W-NW 291 0 min 0,000 mm 0,0 UV-I 0 W/m 10,4 C 20,3 C 4,0 km/h (1 Bft) 0,00 %
13.07.2015 00:05 20,4 C 53 % 1013,4 hPa 0,0 l/m 0,4 km/h (0 Bft) N 355 0 min 0,000 mm 0,0 UV-I 0 W/m 10,5 C 20,4 C 4,0 km/h (1 Bft) 0,00 %
13.07.2015 00:10 20,4 C 53 % 1013,4 hPa 0,0 l/m 0,0 km/h (0 Bft) N 353 0 min 0,000 mm 0,0 UV-I 0 W/m 10,5 C 20,4 C 0,0 km/h (0 Bft) 0,00 %
13.07.2015 00:15 20,4 C 53 % 1013,3 hPa 0,0 l/m 0,0 km/h (0 Bft) NO 49 0 min 0,000 mm 0,0 UV-I 0 W/m 10,5 C 20,4 C 0,0 km/h (0 Bft) 0,00 %
13.07.2015 00:20 20,4 C 53 % 1013,4 hPa 0,0 l/m 0,7 km/h (0 Bft) N-NO 30 0 min 0,000 mm 0,0 UV-I 0 W/m 10,5 C 20,4 C 4,0 km/h (1 Bft) 0,00 %
13.07.2015 00:25 20,4 C 53 % 1013,5 hPa 0,0 l/m 0,0 km/h (0 Bft) NW 325 0 min 0,000 mm 0,0 UV-I 0 W/m 10,5 C 20,4 C 0,0 km/h (0 Bft) 0,00 %
13.07.2015 00:30 20,4 C 53 % 1013,7 hPa 0,0 l/m 4,0 km/h (1 Bft) W-SW 256 0 min 0,000 mm 0,0 UV-I 0 W/m 10,5 C 20,4 C 4,0 km/h (1 Bft) 0,00 %
13.07.2015 00:35 20,4 C 52 % 1013,4 hPa 0,0 l/m 0,7 km/h (0 Bft) W-NW 292 0 min 0,000 mm 0,0 UV-I 0 W/m 10,2 C 20,4 C 4,0 km/h (1 Bft) 0,00 %
13.07.2015 00:40 20,4 C 51 % 1013,7 hPa 0,0 l/m 5,8 km/h (2 Bft) W-SW 255 0 min 0,000 mm 0,0 UV-I 0 W/m 9,9 C 20,4 C 7,9 km/h (2 Bft) 0,00 %
13.07.2015 00:45 20,6 C 49 % 1013,6 hPa 0,0 l/m 0,7 km/h (0 Bft) W-SW 256 0 min 0,000 mm 0,0 UV-I 0 W/m 9,5 C 20,6 C 4,0 km/h (1 Bft) 0,00 %
13.07.2015 00:50 20,7 C 49 % 1013,8 hPa 0,0 l/m 4,3 km/h (1 Bft) NO 36 0 min 0,000 mm 0,0 UV-I 0 W/m 9,6 C 20,7 C 7,9 km/h (2 Bft) 0,00 %
13.07.2015 00:55 20,8 C 49 % 1013,6 hPa 0,0 l/m 1,8 km/h (1 Bft) NW 309 0 min 0,000 mm 0,0 UV-I 0 W/m 9,7 C 20,8 C 4,0 km/h (1 Bft) 0,00 %
13.07.2015 01:00 20,8 C 49 % 1013,9 hPa 0,0 l/m 0,7 km/h (0 Bft) N-NW 347 0 min 0,000 mm 0,0 UV-I 0 W/m 9,7 C 20,8 C 4,0 km/h (1 Bft) 0,00 %
13.07.2015 01:05 20,7 C 51 % 1013,9 hPa 0,0 l/m 10,4 km/h (2 Bft) W-SW 253 0 min 0,000 mm 0,0 UV-I 0 W/m 10,2 C 19,3 C 15,8 km/h (3 Bft) 0,00 %
13.07.2015 01:10 20,5 C 55 % 1014,1 hPa 0,0 l/m 4,3 km/h (1 Bft) S 176 0 min 0,000 mm 0,0 UV-I 0 W/m 11,1 C 20,5 C 7,9 km/h (2 Bft) 0,00 %
13.07.2015 01:15 20,1 C 55 % 1013,9 hPa 0,0 l/m 4,0 km/h (1 Bft) W-SW 252 0 min 0,000 mm 0,0 UV-I 0 W/m 10,8 C 20,1 C 7,9 km/h (2 Bft) 0,00 %
13.07.2015 01:20 19,8 C 56 % 1013,8 hPa 0,0 l/m 0,7 km/h (0 Bft) NO 38 0 min 0,000 mm 0,0 UV-I 0 W/m 10,8 C 19,8 C 4,0 km/h (1 Bft) 0,00 %
13.07.2015 01:25 19,7 C 55 % 1013,8 hPa 0,0 l/m 0,4 km/h (0 Bft) NO 41 0 min 0,000 mm 0,0 UV-I 0 W/m 10,4 C 19,7 C 4,0 km/h (1 Bft) 0,00 %
13.07.2015 01:30 19,6 C 54 % 1013,8 hPa 0,0 l/m 0,7 km/h (0 Bft) O-SO 120 0 min 0,000 mm 0,0 UV-I 0 W/m 10,0 C 19,6 C 4,0 km/h (1 Bft) 0,00 %
13.07.2015 01:35 19,6 C 55 % 1013,9 hPa 0,0 l/m 0,0 km/h (0 Bft) O 95 0 min 0,000 mm 0,0 UV-I 0 W/m 10,3 C 19,6 C 0,0 km/h (0 Bft) 0,00 %
13.07.2015 01:40 19,5 C 56 % 1014,0 hPa 0,0 l/m 7,2 km/h (2 Bft) W-NW 286 0 min 0,000 mm 0,0 UV-I 0 W/m 10,5 C 19,2 C 11,9 km/h (2 Bft) 0,00 %
13.07.2015 01:45 19,3 C 57 % 1014,3 hPa 0,0 l/m 0,7 km/h (0 Bft) N-NO 30 0 min 0,000 mm 0,0 UV-I 0 W/m 10,6 C 19,3 C 4,0 km/h (1 Bft) 0,00 %
13.07.2015 01:50 19,1 C 58 % 1014,2 hPa 0,0 l/m 4,0 km/h (1 Bft) NW 309 0 min 0,000 mm 0,0 UV-I 0 W/m 10,6 C 19,1 C 7,9 km/h (2 Bft) 0,00 %
13.07.2015 01:55 19,0 C 59 % 1014,4 hPa 0,0 l/m 3,2 km/h (1 Bft) NW 319 0 min 0,000 mm 0,0 UV-I 0 W/m 10,8 C 19,0 C 7,9 km/h (2 Bft) 0,00 %
13.07.2015 02:00 18,9 C 60 % 1014,2 hPa 0,0 l/m 1,8 km/h (1 Bft) O 85 0 min 0,000 mm 0,0 UV-I 0 W/m 11,0 C 18,9 C 4,0 km/h (1 Bft) 0,00 %
13.07.2015 02:05 18,7 C 61 % 1014,7 hPa 0,0 l/m 2,9 km/h (1 Bft) N-NW 347 0 min 0,000 mm 0,0 UV-I 0 W/m 11,0 C 18,7 C 4,0 km/h (1 Bft) 0,00 %
13.07.2015 02:10 18,7 C 61 % 1014,6 hPa 0,0 l/m 7,2 km/h (2 Bft) NW 309 0 min 0,000 mm 0,0 UV-I 0 W/m 11,0 C 18,3 C 7,9 km/h (2 Bft) 0,00 %
13.07.2015 02:15 18,7 C 61 % 1014,6 hPa 0,0 l/m 4,7 km/h (1 Bft) W-SW 256 0 min 0,000 mm 0,0 UV-I 0 W/m 11,0 C 18,7 C 7,9 km/h (2 Bft) 0,00 %
13.07.2015 02:20 18,7 C 62 % 1014,5 hPa 0,0 l/m 2,2 km/h (1 Bft) N-NW 339 0 min 0,000 mm 0,0 UV-I 0 W/m 11,3 C 18,7 C 4,0 km/h (1 Bft) 0,00 %
13.07.2015 02:25 18,6 C 63 % 1014,6 hPa 0,0 l/m 4,3 km/h (1 Bft) W-SW 255 0 min 0,000 mm 0,0 UV-I 0 W/m 11,4 C 18,6 C 7,9 km/h (2 Bft) 0,00 %
13.07.2015 02:30 18,3 C 65 % 1014,9 hPa 0,0 l/m 1,4 km/h (1 Bft) N-NW 335 0 min 0,000 mm 0,0 UV-I 0 W/m 11,6 C 18,3 C 4,0 km/h (1 Bft) 0,00 %
13.07.2015 02:35 18,0 C 70 % 1015,0 hPa 0,0 l/m 1,4 km/h (1 Bft) NW 322 0 min 0,000 mm 0,0 UV-I 0 W/m 12,4 C 18,0 C 4,0 km/h (1 Bft) 0,00 %
13.07.2015 02:40 17,6 C 73 % 1015,3 hPa 0,0 l/m 0,7 km/h (0 Bft) O-SO 111 0 min 0,000 mm 0,0 UV-I 0 W/m 12,7 C 17,6 C 4,0 km/h (1 Bft) 0,00 %
13.07.2015 02:45 17,2 C 75 % 1015,1 hPa 0,0 l/m 0,0 km/h (0 Bft) N-NO 33 0 min 0,000 mm 0,0 UV-I 0 W/m 12,7 C 17,2 C 0,0 km/h (0 Bft) 0,00 %
13.07.2015 02:50 16,9 C 76 % 1015,2 hPa 0,0 l/m 0,0 km/h (0 Bft) N-NO 26 0 min 0,000 mm 0,0 UV-I 0 W/m 12,6 C 16,9 C 0,0 km/h (0 Bft) 0,00 %
13.07.2015 02:55 16,8 C 76 % 1015,2 hPa 0,0 l/m 0,7 km/h (0 Bft) N-NW 327 0 min 0,000 mm 0,0 UV-I 0 W/m 12,5 C 16,8 C 4,0 km/h (1 Bft) 0,00 %
13.07.2015 03:00 16,7 C 75 % 1015,0 hPa 0,0 l/m 0,7 km/h (0 Bft) N-NW 336 0 min 0,000 mm 0,0 UV-I 0 W/m 12,2 C 16,7 C 4,0 km/h (1 Bft) 0,00 %
13.07.2015 03:05 16,7 C 74 % 1015,1 hPa 0,0 l/m 0,0 km/h (0 Bft) N 356 0 min 0,000 mm 0,0 UV-I 0 W/m 12,0 C 16,7 C 0,0 km/h (0 Bft) 0,00 %
13.07.2015 03:10 16,7 C 74 % 1015,1 hPa 0,0 l/m 0,0 km/h (0 Bft) N-NO 25 0 min 0,000 mm 0,0 UV-I 0 W/m 12,0 C 16,7 C 0,0 km/h (0 Bft) 0,00 %
13.07.2015 03:15 16,8 C 74 % 1015,2 hPa 0,0 l/m 0,0 km/h (0 Bft) NO 43 0 min 0,000 mm 0,0 UV-I 0 W/m 12,1 C 16,8 C 0,0 km/h (0 Bft) 0,00 %
13.07.2015 03:20 16,8 C 73 % 1015,1 hPa 0,0 l/m 1,8 km/h (1 Bft) O-NO 74 0 min 0,000 mm 0,0 UV-I 0 W/m 11,9 C 16,8 C 7,9 km/h (2 Bft) 0,00 %
13.07.2015 03:25 16,9 C 73 % 1015,2 hPa 0,0 l/m 0,0 km/h (0 Bft) NO 52 0 min 0,000 mm 0,0 UV-I 0 W/m 12,0 C 16,9 C 0,0 km/h (0 Bft) 0,00 %
13.07.2015 03:30 16,9 C 72 % 1015,2 hPa 0,0 l/m 0,4 km/h (0 Bft) NO 36 0 min 0,000 mm 0,0 UV-I 0 W/m 11,8 C 16,9 C 4,0 km/h (1 Bft) 0,00 %
13.07.2015 03:35 16,9 C 72 % 1015,1 hPa 0,0 l/m 0,4 km/h (0 Bft) NW 324 0 min 0,000 mm 0,0 UV-I 0 W/m 11,8 C 16,9 C 4,0 km/h (1 Bft) 0,00 %
13.07.2015 03:40 17,0 C 72 % 1014,9 hPa 0,0 l/m 4,7 km/h (1 Bft) W-SW 256 0 min 0,000 mm 0,0 UV-I 0 W/m 11,9 C 17,0 C 7,9 km/h (2 Bft) 0,00 %
13.07.2015 03:45 17,0 C 72 % 1015,0 hPa 0,0 l/m 5,4 km/h (1 Bft) W-NW 295 0 min 0,000 mm 0,0 UV-I 0 W/m 11,9 C 17,0 C 7,9 km/h (2 Bft) 0,00 %
13.07.2015 03:50 17,0 C 72 % 1015,1 hPa 0,0 l/m 0,0 km/h (0 Bft) NW 322 0 min 0,000 mm 0,0 UV-I 0 W/m 11,9 C 17,0 C 0,0 km/h (0 Bft) 0,00 %
13.07.2015 03:55 17,0 C 72 % 1015,3 hPa 0,0 l/m 0,0 km/h (0 Bft) N-NO 28 0 min 0,000 mm 0,0 UV-I 0 W/m 11,9 C 17,0 C 0,0 km/h (0 Bft) 0,00 %
13.07.2015 04:00 17,0 C 72 % 1014,9 hPa 0,0 l/m 0,4 km/h (0 Bft) W-SW 255 0 min 0,000 mm 0,0 UV-I 0 W/m 11,9 C 17,0 C 4,0 km/h (1 Bft) 0,00 %
13.07.2015 04:05 17,0 C 72 % 1015,1 hPa 0,0 l/m 1,4 km/h (1 Bft) NW 323 0 min 0,000 mm 0,0 UV-I 0 W/m 11,9 C 17,0 C 4,0 km/h (1 Bft) 0,00 %
13.07.2015 04:10 16,9 C 72 % 1015,4 hPa 0,0 l/m 0,0 km/h (0 Bft) NO 42 0 min 0,000 mm 0,0 UV-I 0 W/m 11,8 C 16,9 C 0,0 km/h (0 Bft) 0,00 %
13.07.2015 04:15 16,8 C 72 % 1015,4 hPa 0,0 l/m 1,4 km/h (1 Bft) W-NW 299 0 min 0,000 mm 0,0 UV-I 0 W/m 11,7 C 16,8 C 4,0 km/h (1 Bft) 0,00 %
13.07.2015 04:20 16,8 C 71 % 1015,3 hPa 0,0 l/m 0,0 km/h (0 Bft) N-NO 27 0 min 0,000 mm 0,0 UV-I 0 W/m 11,5 C 16,8 C 0,0 km/h (0 Bft) 0,00 %
13.07.2015 04:25 16,8 C 72 % 1015,5 hPa 0,0 l/m 0,4 km/h (0 Bft) S 172 0 min 0,000 mm 0,0 UV-I 0 W/m 11,7 C 16,8 C 4,0 km/h (1 Bft) 0,00 %
13.07.2015 04:30 16,8 C 71 % 1015,4 hPa 0,0 l/m 0,4 km/h (0 Bft) NO 39 0 min 0,000 mm 0,0 UV-I 0 W/m 11,5 C 16,8 C 4,0 km/h (1 Bft) 0,00 %
13.07.2015 04:35 16,8 C 72 % 1015,5 hPa 0,0 l/m 1,4 km/h (1 Bft) NW 315 0 min 0,000 mm 0,0 UV-I 0 W/m 11,7 C 16,8 C 4,0 km/h (1 Bft) 0,00 %
13.07.2015 04:40 16,7 C 73 % 1015,4 hPa 0,0 l/m 0,4 km/h (0 Bft) NO 40 0 min 0,000 mm 0,0 UV-I 0 W/m 11,8 C 16,7 C 4,0 km/h (1 Bft) 0,00 %
13.07.2015 04:45 16,6 C 73 % 1015,4 hPa 0,0 l/m 0,0 km/h (0 Bft) N 356 0 min 0,000 mm 0,0 UV-I 0 W/m 11,7 C 16,6 C 0,0 km/h (0 Bft) 0,00 %
13.07.2015 04:50 16,5 C 73 % 1015,4 hPa 0,0 l/m 0,7 km/h (0 Bft) NW 321 0 min 0,000 mm 0,0 UV-I 0 W/m 11,6 C 16,5 C 4,0 km/h (1 Bft) 0,00 %
13.07.2015 04:55 16,5 C 73 % 1015,5 hPa 0,0 l/m 0,7 km/h (0 Bft) W-NW 293 0 min 0,000 mm 0,0 UV-I 0 W/m 11,6 C 16,5 C 4,0 km/h (1 Bft) 0,00 %
13.07.2015 05:00 16,5 C 72 % 1015,7 hPa 0,0 l/m 2,9 km/h (1 Bft) N 353 0 min 0,000 mm 0,0 UV-I 0 W/m 11,4 C 16,5 C 4,0 km/h (1 Bft) 0,00 %
13.07.2015 05:05 16,5 C 71 % 1015,5 hPa 0,0 l/m 4,3 km/h (1 Bft) W-NW 303 0 min 0,000 mm 0,0 UV-I 0 W/m 11,2 C 16,5 C 7,9 km/h (2 Bft) 0,00 %
13.07.2015 05:10 16,5 C 70 % 1015,5 hPa 0,0 l/m 3,2 km/h (1 Bft) NW 320 0 min 0,000 mm 0,0 UV-I 0 W/m 11,0 C 16,5 C 4,0 km/h (1 Bft) 0,00 %
13.07.2015 05:15 16,6 C 69 % 1015,4 hPa 0,0 l/m 3,2 km/h (1 Bft) W-NW 300 0 min 0,000 mm 0,0 UV-I 0 W/m 10,9 C 16,6 C 4,0 km/h (1 Bft) 0,00 %
13.07.2015 05:20 16,7 C 69 % 1015,6 hPa 0,0 l/m 1,8 km/h (1 Bft) NO 35 0 min 0,000 mm 0,0 UV-I 0 W/m 11,0 C 16,7 C 4,0 km/h (1 Bft) 0,00 %
13.07.2015 05:25 16,7 C 68 % 1015,6 hPa 0,0 l/m 6,8 km/h (2 Bft) NO 41 0 min 0,000 mm 0,0 UV-I 0 W/m 10,8 C 16,5 C 7,9 km/h (2 Bft) 0,00 %
13.07.2015 05:30 16,8 C 68 % 1015,6 hPa 0,0 l/m 6,5 km/h (2 Bft) W-NW 299 0 min 0,000 mm 0,0 UV-I 0 W/m 10,9 C 16,8 C 7,9 km/h (2 Bft) 0,00 %
13.07.2015 05:35 16,9 C 68 % 1015,6 hPa 0,0 l/m 1,8 km/h (1 Bft) N-NW 344 0 min 0,000 mm 0,0 UV-I 0 W/m 11,0 C 16,9 C 4,0 km/h (1 Bft) 0,00 %
13.07.2015 05:40 16,9 C 68 % 1015,7 hPa 0,0 l/m 0,0 km/h (0 Bft) NO 52 0 min 0,000 mm 0,0 UV-I 0 W/m 11,0 C 16,9 C 0,0 km/h (0 Bft) 0,00 %
13.07.2015 05:45 16,9 C 68 % 1015,8 hPa 0,0 l/m 0,7 km/h (0 Bft) NW 320 0 min 0,000 mm 0,0 UV-I 0 W/m 11,0 C 16,9 C 4,0 km/h (1 Bft) 0,00 %
13.07.2015 05:50 16,9 C 68 % 1015,7 hPa 0,0 l/m 2,9 km/h (1 Bft) N 349 0 min 0,000 mm 0,0 UV-I 2 W/m 11,0 C 16,9 C 4,0 km/h (1 Bft) 0,00 %
13.07.2015 05:55 16,9 C 68 % 1015,7 hPa 0,0 l/m 5,8 km/h (2 Bft) S-SW 206 0 min 0,000 mm 0,0 UV-I 6 W/m 11,0 C 16,9 C 7,9 km/h (2 Bft) 0,00 %
13.07.2015 06:00 16,9 C 68 % 1015,9 hPa 0,0 l/m 0,4 km/h (0 Bft) N-NO 31 0 min 0,000 mm 0,0 UV-I 19 W/m 11,0 C 16,9 C 4,0 km/h (1 Bft) 0,00 %
13.07.2015 06:05 16,9 C 68 % 1015,9 hPa 0,0 l/m 0,0 km/h (0 Bft) N-NO 22 0 min 0,000 mm 0,0 UV-I 22 W/m 11,0 C 16,9 C 0,0 km/h (0 Bft) 0,00 %
13.07.2015 06:10 16,9 C 68 % 1016,0 hPa 0,0 l/m 1,8 km/h (1 Bft) S 186 0 min 0,000 mm 0,0 UV-I 24 W/m 11,0 C 16,9 C 4,0 km/h (1 Bft) 0,00 %
13.07.2015 06:15 16,9 C 68 % 1015,8 hPa 0,0 l/m 2,2 km/h (1 Bft) W-NW 285 0 min 0,000 mm 0,0 UV-I 25 W/m 11,0 C 16,9 C 4,0 km/h (1 Bft) 0,00 %
13.07.2015 06:20 16,9 C 68 % 1016,0 hPa 0,0 l/m 0,4 km/h (0 Bft) N 352 0 min 0,000 mm 0,0 UV-I 24 W/m 11,0 C 16,9 C 4,0 km/h (1 Bft) 0,00 %
13.07.2015 06:25 16,9 C 68 % 1016,1 hPa 0,0 l/m 0,0 km/h (0 Bft) NO 49 0 min 0,000 mm 0,0 UV-I 23 W/m 11,0 C 16,9 C 0,0 km/h (0 Bft) 0,00 %
13.07.2015 06:30 16,8 C 68 % 1016,0 hPa 0,0 l/m 2,9 km/h (1 Bft) NW 323 0 min 0,000 mm 0,0 UV-I 19 W/m 10,9 C 16,8 C 4,0 km/h (1 Bft) 0,00 %
13.07.2015 06:35 16,8 C 68 % 1016,0 hPa 0,0 l/m 0,4 km/h (0 Bft) N 354 0 min 0,000 mm 0,0 UV-I 28 W/m 10,9 C 16,8 C 4,0 km/h (1 Bft) 0,00 %
13.07.2015 06:40 16,8 C 69 % 1016,0 hPa 0,0 l/m 4,7 km/h (1 Bft) W-SW 256 0 min 0,000 mm 0,0 UV-I 35 W/m 11,1 C 16,8 C 7,9 km/h (2 Bft) 0,00 %
13.07.2015 06:45 16,8 C 69 % 1015,9 hPa 0,0 l/m 5,4 km/h (1 Bft) NW 315 0 min 0,000 mm 0,0 UV-I 42 W/m 11,1 C 16,8 C 7,9 km/h (2 Bft) 0,00 %
13.07.2015 06:50 16,8 C 69 % 1016,1 hPa 0,0 l/m 7,2 km/h (2 Bft) W-SW 253 0 min 0,000 mm 0,0 UV-I 42 W/m 11,1 C 16,4 C 11,9 km/h (2 Bft) 0,00 %
13.07.2015 06:55 16,9 C 68 % 1016,1 hPa 0,0 l/m 1,8 km/h (1 Bft) N-NW 338 0 min 0,000 mm 0,0 UV-I 60 W/m 11,0 C 16,9 C 4,0 km/h (1 Bft) 0,00 %
13.07.2015 07:00 16,9 C 68 % 1016,3 hPa 0,0 l/m 0,4 km/h (0 Bft) O-NO 60 0 min 0,000 mm 0,0 UV-I 62 W/m 11,0 C 16,9 C 4,0 km/h (1 Bft) 0,00 %
13.07.2015 07:05 17,0 C 68 % 1016,3 hPa 0,0 l/m 0,0 km/h (0 Bft) O-NO 69 0 min 0,000 mm 1,0 UV-I 79 W/m 11,0 C 17,0 C 0,0 km/h (0 Bft) 0,00 %
13.07.2015 07:10 17,0 C 68 % 1016,4 hPa 0,0 l/m 0,0 km/h (0 Bft) N-NW 342 0 min 0,000 mm 0,0 UV-I 77 W/m 11,0 C 17,0 C 0,0 km/h (0 Bft) 0,00 %
13.07.2015 07:15 17,1 C 68 % 1016,4 hPa 0,0 l/m 1,4 km/h (1 Bft) NO 36 0 min 0,000 mm 0,0 UV-I 82 W/m 11,1 C 17,1 C 7,9 km/h (2 Bft) 0,00 %
13.07.2015 07:20 17,2 C 68 % 1016,3 hPa 0,0 l/m 0,0 km/h (0 Bft) N 356 0 min 0,000 mm 1,0 UV-I 90 W/m 11,2 C 17,2 C 0,0 km/h (0 Bft) 0,00 %
13.07.2015 07:25 17,2 C 67 % 1016,3 hPa 0,0 l/m 0,7 km/h (0 Bft) N-NW 345 0 min 0,000 mm 1,0 UV-I 111 W/m 11,0 C 17,2 C 4,0 km/h (1 Bft) 0,00 %
13.07.2015 07:30 17,3 C 67 % 1016,2 hPa 0,0 l/m 0,7 km/h (0 Bft) W-NW 301 0 min 0,000 mm 1,0 UV-I 114 W/m 11,1 C 17,3 C 4,0 km/h (1 Bft) 0,00 %
13.07.2015 07:35 17,4 C 67 % 1016,2 hPa 0,0 l/m 0,7 km/h (0 Bft) N 349 0 min 0,000 mm 1,0 UV-I 114 W/m 11,2 C 17,4 C 4,0 km/h (1 Bft) 0,00 %
13.07.2015 07:40 17,5 C 67 % 1016,2 hPa 0,0 l/m 0,4 km/h (0 Bft) W-NW 300 0 min 0,000 mm 1,0 UV-I 85 W/m 11,3 C 17,5 C 4,0 km/h (1 Bft) 0,00 %
13.07.2015 07:45 17,5 C 66 % 1016,3 hPa 0,0 l/m 1,4 km/h (1 Bft) O-SO 120 0 min 0,000 mm 1,0 UV-I 106 W/m 11,1 C 17,5 C 4,0 km/h (1 Bft) 0,00 %
13.07.2015 07:50 17,6 C 66 % 1016,3 hPa 0,0 l/m 13,0 km/h (3 Bft) W-NW 288 0 min 0,000 mm 1,0 UV-I 96 W/m 11,2 C 14,9 C 15,8 km/h (3 Bft) 0,00 %
13.07.2015 07:55 17,6 C 66 % 1016,2 hPa 0,0 l/m 2,9 km/h (1 Bft) N-NW 342 0 min 0,000 mm 1,0 UV-I 59 W/m 11,2 C 17,6 C 4,0 km/h (1 Bft) 0,00 %
13.07.2015 08:00 17,6 C 66 % 1016,5 hPa 0,0 l/m 5,8 km/h (2 Bft) N-NW 339 0 min 0,000 mm 0,0 UV-I 69 W/m 11,2 C 17,6 C 7,9 km/h (2 Bft) 0,00 %
13.07.2015 08:05 17,5 C 67 % 1016,4 hPa 0,0 l/m 4,0 km/h (1 Bft) W-NW 285 0 min 0,000 mm 0,0 UV-I 93 W/m 11,3 C 17,5 C 7,9 km/h (2 Bft) 0,00 %
13.07.2015 08:10 17,5 C 67 % 1016,6 hPa 0,0 l/m 0,4 km/h (0 Bft) NO 44 0 min 0,000 mm 1,0 UV-I 122 W/m 11,3 C 17,5 C 4,0 km/h (1 Bft) 0,00 %
13.07.2015 08:15 17,5 C 67 % 1016,8 hPa 0,0 l/m 0,0 km/h (0 Bft) NO 34 0 min 0,000 mm 1,0 UV-I 116 W/m 11,3 C 17,5 C 0,0 km/h (0 Bft) 0,00 %
13.07.2015 08:20 17,5 C 67 % 1016,7 hPa 0,0 l/m 5,8 km/h (2 Bft) W-SW 256 0 min 0,000 mm 1,0 UV-I 115 W/m 11,3 C 17,5 C 11,9 km/h (2 Bft) 0,00 %
13.07.2015 08:25 17,6 C 67 % 1016,7 hPa 0,0 l/m 4,0 km/h (1 Bft) NW 318 0 min 0,000 mm 1,0 UV-I 111 W/m 11,4 C 17,6 C 7,9 km/h (2 Bft) 0,00 %
13.07.2015 08:30 17,7 C 68 % 1016,6 hPa 0,0 l/m 0,0 km/h (0 Bft) NW 310 0 min 0,000 mm 1,0 UV-I 123 W/m 11,7 C 17,7 C 0,0 km/h (0 Bft) 0,00 %
13.07.2015 08:35 17,7 C 66 % 1016,8 hPa 0,0 l/m 4,0 km/h (1 Bft) N-NW 329 0 min 0,000 mm 1,0 UV-I 129 W/m 11,3 C 17,7 C 7,9 km/h (2 Bft) 0,00 %
13.07.2015 08:40 17,7 C 65 % 1016,7 hPa 0,0 l/m 0,7 km/h (0 Bft) N 357 0 min 0,000 mm 1,0 UV-I 103 W/m 11,0 C 17,7 C 4,0 km/h (1 Bft) 0,00 %
13.07.2015 08:45 17,8 C 64 % 1016,8 hPa 0,0 l/m 9,4 km/h (2 Bft) NW 305 0 min 0,000 mm 1,0 UV-I 76 W/m 10,9 C 16,4 C 11,9 km/h (2 Bft) 0,00 %
13.07.2015 08:50 17,8 C 62 % 1016,7 hPa 0,0 l/m 1,4 km/h (1 Bft) NW 307 0 min 0,000 mm 1,0 UV-I 70 W/m 10,4 C 17,8 C 4,0 km/h (1 Bft) 0,00 %
13.07.2015 08:55 17,7 C 63 % 1016,9 hPa 0,0 l/m 4,3 km/h (1 Bft) N 354 0 min 0,000 mm 0,0 UV-I 121 W/m 10,6 C 17,7 C 7,9 km/h (2 Bft) 0,00 %
13.07.2015 09:00 17,7 C 64 % 1016,7 hPa 0,0 l/m 9,4 km/h (2 Bft) W-SW 239 0 min 0,000 mm 1,0 UV-I 150 W/m 10,8 C 16,3 C 11,9 km/h (2 Bft) 0,00 %
13.07.2015 09:05 17,6 C 63 % 1016,9 hPa 0,0 l/m 0,7 km/h (0 Bft) NW 318 0 min 0,000 mm 1,0 UV-I 157 W/m 10,5 C 17,6 C 4,0 km/h (1 Bft) 0,00 %
13.07.2015 09:10 17,7 C 63 % 1016,9 hPa 0,0 l/m 2,2 km/h (1 Bft) W-SW 252 0 min 0,000 mm 1,0 UV-I 168 W/m 10,6 C 17,7 C 4,0 km/h (1 Bft) 0,00 %
13.07.2015 09:15 17,9 C 62 % 1016,9 hPa 0,0 l/m 0,0 km/h (0 Bft) N-NW 333 0 min 0,000 mm 1,0 UV-I 206 W/m 10,5 C 17,9 C 0,0 km/h (0 Bft) 0,00 %
13.07.2015 09:20 18,0 C 63 % 1017,0 hPa 0,0 l/m 1,8 km/h (1 Bft) N 8 0 min 0,000 mm 1,0 UV-I 224 W/m 10,8 C 18,0 C 4,0 km/h (1 Bft) 0,00 %
13.07.2015 09:25 18,1 C 63 % 1016,8 hPa 0,0 l/m 0,7 km/h (0 Bft) N-NO 28 0 min 0,000 mm 1,0 UV-I 241 W/m 10,9 C 18,1 C 4,0 km/h (1 Bft) 0,00 %
13.07.2015 09:30 18,2 C 63 % 1017,1 hPa 0,0 l/m 1,8 km/h (1 Bft) N-NW 334 0 min 0,000 mm 1,0 UV-I 237 W/m 11,0 C 18,2 C 4,0 km/h (1 Bft) 0,00 %
13.07.2015 09:35 18,4 C 63 % 1016,9 hPa 0,0 l/m 1,8 km/h (1 Bft) W-SW 255 0 min 0,000 mm 1,0 UV-I 178 W/m 11,2 C 18,4 C 4,0 km/h (1 Bft) 0,00 %
13.07.2015 09:40 18,6 C 62 % 1017,2 hPa 0,0 l/m 3,2 km/h (1 Bft) N-NO 28 0 min 0,000 mm 1,0 UV-I 171 W/m 11,2 C 18,6 C 7,9 km/h (2 Bft) 0,00 %
13.07.2015 09:45 18,7 C 61 % 1017,3 hPa 0,0 l/m 2,9 km/h (1 Bft) W-SW 257 0 min 0,000 mm 1,0 UV-I 193 W/m 11,0 C 18,7 C 4,0 km/h (1 Bft) 0,00 %
13.07.2015 09:50 18,6 C 60 % 1017,2 hPa 0,0 l/m 7,2 km/h (2 Bft) S 187 0 min 0,000 mm 1,0 UV-I 301 W/m 10,7 C 18,2 C 11,9 km/h (2 Bft) 0,00 %
13.07.2015 09:55 18,4 C 59 % 1017,2 hPa 0,0 l/m 7,9 km/h (2 Bft) W-NW 302 0 min 0,000 mm 1,0 UV-I 301 W/m 10,2 C 17,7 C 11,9 km/h (2 Bft) 0,00 %
13.07.2015 10:00 18,4 C 59 % 1017,3 hPa 0,0 l/m 4,0 km/h (1 Bft) W-NW 283 0 min 0,000 mm 2,0 UV-I 344 W/m 10,2 C 18,4 C 7,9 km/h (2 Bft) 0,00 %
13.07.2015 10:05 18,5 C 60 % 1017,4 hPa 0,0 l/m 3,2 km/h (1 Bft) N-NW 346 0 min 0,000 mm 2,0 UV-I 282 W/m 10,6 C 18,5 C 7,9 km/h (2 Bft) 0,00 %
13.07.2015 10:10 18,7 C 60 % 1017,2 hPa 0,0 l/m 0,4 km/h (0 Bft) N-NO 21 0 min 0,000 mm 2,0 UV-I 279 W/m 10,8 C 18,7 C 4,0 km/h (1 Bft) 0,00 %
13.07.2015 10:15 18,8 C 60 % 1017,2 hPa 0,0 l/m 7,2 km/h (2 Bft) W-SW 252 0 min 0,000 mm 2,0 UV-I 246 W/m 10,9 C 18,4 C 15,8 km/h (3 Bft) 0,00 %
13.07.2015 10:20 18,8 C 60 % 1017,2 hPa 0,0 l/m 4,7 km/h (1 Bft) W-SW 255 0 min 0,000 mm 2,0 UV-I 160 W/m 10,9 C 18,8 C 7,9 km/h (2 Bft) 0,00 %
13.07.2015 10:25 18,8 C 59 % 1017,4 hPa 0,0 l/m 7,9 km/h (2 Bft) NW 319 0 min 0,000 mm 1,0 UV-I 146 W/m 10,6 C 18,1 C 11,9 km/h (2 Bft) 0,00 %
13.07.2015 10:30 18,6 C 61 % 1017,4 hPa 0,0 l/m 0,4 km/h (0 Bft) NO 36 0 min 0,000 mm 1,0 UV-I 181 W/m 10,9 C 18,6 C 4,0 km/h (1 Bft) 0,00 %
13.07.2015 10:35 18,3 C 62 % 1017,5 hPa 0,0 l/m 0,0 km/h (0 Bft) N-NW 340 0 min 0,000 mm 1,0 UV-I 211 W/m 10,9 C 18,3 C 0,0 km/h (0 Bft) 0,00 %
13.07.2015 10:40 18,1 C 62 % 1017,5 hPa 0,0 l/m 2,9 km/h (1 Bft) N-NW 348 0 min 0,000 mm 1,0 UV-I 224 W/m 10,7 C 18,1 C 4,0 km/h (1 Bft) 0,00 %
13.07.2015 10:45 18,0 C 63 % 1017,5 hPa 0,0 l/m 11,5 km/h (2 Bft) W-NW 290 0 min 0,000 mm 1,0 UV-I 224 W/m 10,8 C 15,9 C 11,9 km/h (2 Bft) 0,00 %
13.07.2015 10:50 17,9 C 62 % 1017,5 hPa 0,0 l/m 3,2 km/h (1 Bft) W-SW 239 0 min 0,000 mm 1,0 UV-I 240 W/m 10,5 C 17,9 C 7,9 km/h (2 Bft) 0,00 %
13.07.2015 10:55 17,9 C 62 % 1017,4 hPa 0,0 l/m 0,4 km/h (0 Bft) O-NO 76 0 min 0,000 mm 1,0 UV-I 269 W/m 10,5 C 17,9 C 4,0 km/h (1 Bft) 0,00 %
13.07.2015 11:00 18,1 C 62 % 1017,5 hPa 0,0 l/m 1,8 km/h (1 Bft) W 275 0 min 0,000 mm 1,0 UV-I 303 W/m 10,7 C 18,1 C 4,0 km/h (1 Bft) 0,00 %
13.07.2015 11:05 18,2 C 62 % 1017,5 hPa 0,0 l/m 1,4 km/h (1 Bft) W-SW 255 0 min 0,000 mm 1,0 UV-I 326 W/m 10,8 C 18,2 C 4,0 km/h (1 Bft) 0,00 %
13.07.2015 11:10 18,3 C 61 % 1017,4 hPa 0,0 l/m 0,0 km/h (0 Bft) O-SO 102 0 min 0,000 mm 1,0 UV-I 319 W/m 10,6 C 18,3 C 0,0 km/h (0 Bft) 0,00 %
13.07.2015 11:15 18,5 C 62 % 1017,2 hPa 0,0 l/m 0,0 km/h (0 Bft) NO 43 0 min 0,000 mm 2,0 UV-I 274 W/m 11,1 C 18,5 C 0,0 km/h (0 Bft) 0,00 %
13.07.2015 11:20 18,7 C 61 % 1017,2 hPa 0,0 l/m 5,8 km/h (2 Bft) N 349 0 min 0,000 mm 2,0 UV-I 262 W/m 11,0 C 18,7 C 11,9 km/h (2 Bft) 0,00 %
13.07.2015 11:25 18,9 C 61 % 1017,2 hPa 0,0 l/m 0,0 km/h (0 Bft) N 352 0 min 0,000 mm 2,0 UV-I 262 W/m 11,2 C 18,9 C 0,0 km/h (0 Bft) 0,00 %
13.07.2015 11:30 19,1 C 60 % 1017,0 hPa 0,0 l/m 6,8 km/h (2 Bft) W-SW 256 0 min 0,000 mm 2,0 UV-I 195 W/m 11,1 C 18,9 C 7,9 km/h (2 Bft) 0,00 %
13.07.2015 11:35 19,1 C 60 % 1017,1 hPa 0,0 l/m 1,8 km/h (1 Bft) NO 39 0 min 0,000 mm 2,0 UV-I 285 W/m 11,1 C 19,1 C 4,0 km/h (1 Bft) 0,00 %
13.07.2015 11:40 19,0 C 61 % 1016,9 hPa 0,0 l/m 1,4 km/h (1 Bft) NW 308 0 min 0,000 mm 1,0 UV-I 194 W/m 11,3 C 19,0 C 4,0 km/h (1 Bft) 0,00 %
13.07.2015 11:45 19,0 C 61 % 1017,1 hPa 0,0 l/m 1,4 km/h (1 Bft) N-NO 28 0 min 0,000 mm 1,0 UV-I 148 W/m 11,3 C 19,0 C 4,0 km/h (1 Bft) 0,00 %
13.07.2015 11:50 18,9 C 62 % 1017,1 hPa 0,0 l/m 0,4 km/h (0 Bft) NW 324 0 min 0,000 mm 1,0 UV-I 93 W/m 11,5 C 18,9 C 4,0 km/h (1 Bft) 0,00 %
13.07.2015 11:55 18,7 C 62 % 1017,1 hPa 0,0 l/m 4,3 km/h (1 Bft) W-SW 237 0 min 0,000 mm 2,0 UV-I 283 W/m 11,3 C 18,7 C 7,9 km/h (2 Bft) 0,00 %
13.07.2015 12:00 18,8 C 61 % 1016,9 hPa 0,0 l/m 1,8 km/h (1 Bft) NO 38 5 min 0,000 mm 1,0 UV-I 572 W/m 11,1 C 18,8 C 4,0 km/h (1 Bft) 0,00 %
13.07.2015 12:05 18,9 C 62 % 1016,8 hPa 0,0 l/m 2,9 km/h (1 Bft) N-NO 29 0 min 0,000 mm 1,0 UV-I 180 W/m 11,5 C 18,9 C 4,0 km/h (1 Bft) 0,00 %
13.07.2015 12:10 18,8 C 63 % 1017,0 hPa 0,0 l/m 3,2 km/h (1 Bft) NW 311 0 min 0,000 mm 0,0 UV-I 158 W/m 11,6 C 18,8 C 7,9 km/h (2 Bft) 0,00 %
13.07.2015 12:15 18,5 C 63 % 1016,9 hPa 0,0 l/m 4,3 km/h (1 Bft) W 276 0 min 0,000 mm 1,0 UV-I 121 W/m 11,3 C 18,5 C 7,9 km/h (2 Bft) 0,00 %
13.07.2015 12:20 18,5 C 62 % 1016,8 hPa 0,0 l/m 10,8 km/h (2 Bft) SW 225 0 min 0,000 mm 3,0 UV-I 152 W/m 11,1 C 16,7 C 15,8 km/h (3 Bft) 0,00 %
13.07.2015 12:25 19,1 C 60 % 1016,5 hPa 0,0 l/m 0,4 km/h (0 Bft) N-NO 22 0 min 0,000 mm 3,0 UV-I 189 W/m 11,1 C 19,1 C 4,0 km/h (1 Bft) 0,00 %
13.07.2015 12:30 19,8 C 60 % 1016,7 hPa 0,0 l/m 4,0 km/h (1 Bft) W-NW 285 0 min 0,000 mm 1,0 UV-I 179 W/m 11,8 C 19,8 C 7,9 km/h (2 Bft) 0,00 %
13.07.2015 12:35 19,9 C 61 % 1016,5 hPa 0,0 l/m 1,4 km/h (1 Bft) NO 37 0 min 0,000 mm 1,0 UV-I 157 W/m 12,2 C 19,9 C 4,0 km/h (1 Bft) 0,00 %
13.07.2015 12:40 19,4 C 63 % 1016,7 hPa 0,0 l/m 2,9 km/h (1 Bft) N 359 0 min 0,000 mm 1,0 UV-I 267 W/m 12,2 C 19,4 C 4,0 km/h (1 Bft) 0,00 %
13.07.2015 12:45 19,1 C 64 % 1016,8 hPa 0,0 l/m 1,8 km/h (1 Bft) NW 308 0 min 0,000 mm 1,0 UV-I 361 W/m 12,1 C 19,1 C 4,0 km/h (1 Bft) 0,00 %
13.07.2015 12:50 18,9 C 62 % 1016,5 hPa 0,0 l/m 0,7 km/h (0 Bft) W 272 0 min 0,000 mm 1,0 UV-I 132 W/m 11,5 C 18,9 C 4,0 km/h (1 Bft) 0,00 %
13.07.2015 12:55 18,9 C 62 % 1016,6 hPa 0,0 l/m 0,4 km/h (0 Bft) NO 34 0 min 0,000 mm 1,0 UV-I 104 W/m 11,5 C 18,9 C 4,0 km/h (1 Bft) 0,00 %
13.07.2015 13:00 19,0 C 62 % 1016,6 hPa 0,0 l/m 0,4 km/h (0 Bft) N-NO 33 0 min 0,000 mm 1,0 UV-I 100 W/m 11,6 C 19,0 C 4,0 km/h (1 Bft) 0,00 %
13.07.2015 13:05 19,0 C 63 % 1016,7 hPa 0,0 l/m 3,2 km/h (1 Bft) O-NO 59 0 min 0,000 mm 1,0 UV-I 115 W/m 11,8 C 19,0 C 7,9 km/h (2 Bft) 0,00 %
13.07.2015 13:10 19,1 C 62 % 1016,6 hPa 0,0 l/m 1,8 km/h (1 Bft) N-NO 30 0 min 0,000 mm 1,0 UV-I 217 W/m 11,6 C 19,1 C 4,0 km/h (1 Bft) 0,00 %
13.07.2015 13:15 19,2 C 63 % 1016,5 hPa 0,0 l/m 4,7 km/h (1 Bft) NW 310 0 min 0,000 mm 2,0 UV-I 359 W/m 12,0 C 19,2 C 7,9 km/h (2 Bft) 0,00 %
13.07.2015 13:20 19,5 C 61 % 1016,4 hPa 0,0 l/m 9,4 km/h (2 Bft) W-SW 256 5 min 0,000 mm 1,0 UV-I 538 W/m 11,8 C 18,3 C 11,9 km/h (2 Bft) 0,00 %
13.07.2015 13:25 19,6 C 61 % 1016,5 hPa 0,0 l/m 0,7 km/h (0 Bft) O 97 0 min 0,000 mm 1,0 UV-I 329 W/m 11,9 C 19,6 C 4,0 km/h (1 Bft) 0,00 %
13.07.2015 13:30 19,4 C 62 % 1016,5 hPa 0,0 l/m 1,8 km/h (1 Bft) O-NO 77 0 min 0,000 mm 1,0 UV-I 258 W/m 11,9 C 19,4 C 4,0 km/h (1 Bft) 0,00 %
13.07.2015 13:35 19,1 C 62 % 1016,6 hPa 0,0 l/m 1,4 km/h (1 Bft) N-NW 346 0 min 0,000 mm 0,0 UV-I 238 W/m 11,6 C 19,1 C 4,0 km/h (1 Bft) 0,00 %
13.07.2015 13:40 19,0 C 63 % 1016,6 hPa 0,0 l/m 0,7 km/h (0 Bft) O-NO 63 0 min 0,000 mm 1,0 UV-I 295 W/m 11,8 C 19,0 C 4,0 km/h (1 Bft) 0,00 %
13.07.2015 13:45 19,0 C 62 % 1016,6 hPa 0,0 l/m 5,4 km/h (1 Bft) N-NW 334 0 min 0,000 mm 2,0 UV-I 173 W/m 11,6 C 19,0 C 11,9 km/h (2 Bft) 0,00 %
13.07.2015 13:50 19,3 C 63 % 1016,5 hPa 0,0 l/m 0,0 km/h (0 Bft) NO 52 0 min 0,000 mm 3,0 UV-I 198 W/m 12,1 C 19,3 C 0,0 km/h (0 Bft) 0,00 %
13.07.2015 13:55 19,9 C 60 % 1016,3 hPa 0,0 l/m 2,2 km/h (1 Bft) N-NW 343 0 min 0,000 mm 2,0 UV-I 153 W/m 11,9 C 19,9 C 4,0 km/h (1 Bft) 0,00 %
13.07.2015 14:00 20,4 C 59 % 1016,0 hPa 0,0 l/m 1,8 km/h (1 Bft) W 278 0 min 0,000 mm 2,0 UV-I 176 W/m 12,1 C 20,4 C 4,0 km/h (1 Bft) 0,00 %
13.07.2015 14:05 20,6 C 59 % 1016,2 hPa 0,0 l/m 0,4 km/h (0 Bft) NO 51 0 min 0,000 mm 1,0 UV-I 226 W/m 12,3 C 20,6 C 4,0 km/h (1 Bft) 0,00 %
13.07.2015 14:10 20,3 C 60 % 1016,1 hPa 0,0 l/m 6,5 km/h (2 Bft) S-SW 211 0 min 0,000 mm 3,0 UV-I 206 W/m 12,3 C 20,3 C 7,9 km/h (2 Bft) 0,00 %
13.07.2015 14:15 20,2 C 59 % 1016,3 hPa 0,0 l/m 2,9 km/h (1 Bft) NO 35 0 min 0,000 mm 1,0 UV-I 139 W/m 11,9 C 20,2 C 7,9 km/h (2 Bft) 0,00 %
13.07.2015 14:20 20,3 C 59 % 1016,2 hPa 0,0 l/m 6,8 km/h (2 Bft) W-SW 256 0 min 0,000 mm 1,0 UV-I 206 W/m 12,0 C 20,1 C 11,9 km/h (2 Bft) 0,00 %
13.07.2015 14:25 20,1 C 59 % 1016,2 hPa 0,0 l/m 4,7 km/h (1 Bft) W 259 0 min 0,000 mm 1,0 UV-I 181 W/m 11,8 C 20,1 C 7,9 km/h (2 Bft) 0,00 %
13.07.2015 14:30 20,0 C 60 % 1016,3 hPa 0,0 l/m 10,8 km/h (2 Bft) NW 304 0 min 0,000 mm 1,0 UV-I 167 W/m 12,0 C 18,4 C 11,9 km/h (2 Bft) 0,00 %
13.07.2015 14:35 19,8 C 60 % 1016,2 hPa 0,0 l/m 6,5 km/h (2 Bft) N-NW 330 0 min 0,000 mm 1,0 UV-I 209 W/m 11,8 C 19,8 C 11,9 km/h (2 Bft) 0,00 %
13.07.2015 14:40 19,8 C 60 % 1016,3 hPa 0,0 l/m 3,2 km/h (1 Bft) W-SW 245 0 min 0,000 mm 1,0 UV-I 212 W/m 11,8 C 19,8 C 4,0 km/h (1 Bft) 0,00 %
13.07.2015 14:45 19,9 C 60 % 1016,2 hPa 0,0 l/m 0,0 km/h (0 Bft) NO 49 0 min 0,000 mm 1,0 UV-I 198 W/m 11,9 C 19,9 C 0,0 km/h (0 Bft) 0,00 %
13.07.2015 14:50 20,1 C 59 % 1016,1 hPa 0,0 l/m 6,5 km/h (2 Bft) S-SW 202 0 min 0,000 mm 1,0 UV-I 223 W/m 11,8 C 20,1 C 7,9 km/h (2 Bft) 0,00 %
13.07.2015 14:55 20,1 C 58 % 1016,2 hPa 0,0 l/m 0,4 km/h (0 Bft) N 352 0 min 0,000 mm 1,0 UV-I 109 W/m 11,6 C 20,1 C 4,0 km/h (1 Bft) 0,00 %
13.07.2015 15:00 20,2 C 57 % 1016,3 hPa 0,0 l/m 0,0 km/h (0 Bft) N 355 0 min 0,000 mm 1,0 UV-I 84 W/m 11,4 C 20,2 C 0,0 km/h (0 Bft) 0,00 %
13.07.2015 15:05 20,2 C 57 % 1016,2 hPa 0,0 l/m 0,0 km/h (0 Bft) NO 42 0 min 0,000 mm 1,0 UV-I 96 W/m 11,4 C 20,2 C 0,0 km/h (0 Bft) 0,00 %
13.07.2015 15:10 20,2 C 59 % 1016,3 hPa 0,0 l/m 0,0 km/h (0 Bft) N-NO 33 0 min 0,000 mm 1,0 UV-I 66 W/m 11,9 C 20,2 C 0,0 km/h (0 Bft) 0,00 %
13.07.2015 15:15 20,2 C 58 % 1016,1 hPa 0,0 l/m 0,0 km/h (0 Bft) NO 43 0 min 0,000 mm 1,0 UV-I 76 W/m 11,7 C 20,2 C 0,0 km/h (0 Bft) 0,00 %
13.07.2015 15:20 20,5 C 58 % 1016,2 hPa 0,0 l/m 0,0 km/h (0 Bft) O-NO 75 0 min 0,000 mm 1,0 UV-I 47 W/m 11,9 C 20,5 C 0,0 km/h (0 Bft) 0,00 %
13.07.2015 15:25 20,2 C 60 % 1015,9 hPa 0,0 l/m 5,8 km/h (2 Bft) W 274 0 min 0,000 mm 1,0 UV-I 44 W/m 12,2 C 20,2 C 7,9 km/h (2 Bft) 0,00 %
13.07.2015 15:30 20,2 C 60 % 1015,9 hPa 0,0 l/m 0,0 km/h (0 Bft) N-NW 340 0 min 0,000 mm 0,0 UV-I 35 W/m 12,2 C 20,2 C 0,0 km/h (0 Bft) 0,00 %
13.07.2015 15:35 20,0 C 61 % 1015,8 hPa 0,0 l/m 5,4 km/h (1 Bft) W 281 0 min 0,000 mm 1,0 UV-I 34 W/m 12,2 C 20,0 C 7,9 km/h (2 Bft) 0,00 %
13.07.2015 15:40 19,8 C 61 % 1016,0 hPa 0,0 l/m 0,7 km/h (0 Bft) NW 322 0 min 0,000 mm 1,0 UV-I 21 W/m 12,1 C 19,8 C 4,0 km/h (1 Bft) 0,00 %
13.07.2015 15:45 19,7 C 61 % 1016,2 hPa 0,0 l/m 1,4 km/h (1 Bft) SW 223 0 min 0,000 mm 0,0 UV-I 31 W/m 12,0 C 19,7 C 4,0 km/h (1 Bft) 0,00 %
13.07.2015 15:50 19,6 C 62 % 1016,1 hPa 0,0 l/m 5,8 km/h (2 Bft) N 349 0 min 0,000 mm 0,0 UV-I 25 W/m 12,1 C 19,6 C 7,9 km/h (2 Bft) 0,00 %
13.07.2015 15:55 19,3 C 62 % 1016,3 hPa 0,0 l/m 0,4 km/h (0 Bft) W-NW 288 0 min 0,000 mm 1,0 UV-I 72 W/m 11,8 C 19,3 C 4,0 km/h (1 Bft) 0,00 %
13.07.2015 16:00 19,2 C 64 % 1016,2 hPa 0,0 l/m 1,4 km/h (1 Bft) NW 325 0 min 0,000 mm 0,0 UV-I 91 W/m 12,2 C 19,2 C 4,0 km/h (1 Bft) 0,00 %
13.07.2015 16:05 19,1 C 64 % 1016,3 hPa 0,0 l/m 0,0 km/h (0 Bft) N-NO 33 0 min 0,000 mm 0,0 UV-I 92 W/m 12,1 C 19,1 C 0,0 km/h (0 Bft) 0,00 %
13.07.2015 16:10 19,0 C 65 % 1016,2 hPa 0,0 l/m 0,7 km/h (0 Bft) NW 321 0 min 0,000 mm 0,0 UV-I 100 W/m 12,3 C 19,0 C 4,0 km/h (1 Bft) 0,00 %
13.07.2015 16:15 18,9 C 65 % 1016,2 hPa 0,0 l/m 0,0 km/h (0 Bft) NO 49 0 min 0,000 mm 0,0 UV-I 117 W/m 12,2 C 18,9 C 0,0 km/h (0 Bft) 0,00 %
13.07.2015 16:20 18,8 C 67 % 1016,1 hPa 0,0 l/m 0,0 km/h (0 Bft) N 357 0 min 0,000 mm 0,0 UV-I 84 W/m 12,5 C 18,8 C 0,0 km/h (0 Bft) 0,00 %
13.07.2015 16:25 18,6 C 68 % 1016,2 hPa 0,0 l/m 0,0 km/h (0 Bft) NO 43 0 min 0,000 mm 0,0 UV-I 138 W/m 12,6 C 18,6 C 0,0 km/h (0 Bft) 0,00 %
13.07.2015 16:30 18,5 C 74 % 1016,2 hPa 0,0 l/m 0,0 km/h (0 Bft) NO 44 0 min 0,000 mm 0,0 UV-I 88 W/m 13,8 C 18,5 C 0,0 km/h (0 Bft) 0,00 %
13.07.2015 16:35 18,3 C 74 % 1016,2 hPa 0,0 l/m 0,0 km/h (0 Bft) NO 36 0 min 0,000 mm 0,0 UV-I 83 W/m 13,6 C 18,3 C 0,0 km/h (0 Bft) 0,00 %
13.07.2015 16:40 18,1 C 73 % 1016,2 hPa 0,0 l/m 0,0 km/h (0 Bft) NO 47 0 min 0,000 mm 0,0 UV-I 72 W/m 13,2 C 18,1 C 0,0 km/h (0 Bft) 0,00 %
13.07.2015 16:45 18,1 C 79 % 1016,0 hPa 0,0 l/m 0,0 km/h (0 Bft) NO 40 0 min 0,000 mm 0,0 UV-I 65 W/m 14,4 C 18,1 C 0,0 km/h (0 Bft) 0,00 %
13.07.2015 16:50 18,1 C 81 % 1016,0 hPa 0,0 l/m 0,0 km/h (0 Bft) NO 44 0 min 0,000 mm 0,0 UV-I 58 W/m 14,8 C 18,1 C 0,0 km/h (0 Bft) 0,00 %
13.07.2015 16:55 18,2 C 81 % 1016,0 hPa 0,0 l/m 0,0 km/h (0 Bft) NO 47 0 min 0,000 mm 1,0 UV-I 39 W/m 14,9 C 18,2 C 0,0 km/h (0 Bft) 0,00 %
13.07.2015 17:00 18,2 C 81 % 1016,0 hPa 0,0 l/m 0,0 km/h (0 Bft) NO 37 0 min 0,000 mm 1,0 UV-I 45 W/m 14,9 C 18,2 C 0,0 km/h (0 Bft) 0,00 %
13.07.2015 17:05 18,3 C 82 % 1016,2 hPa 0,0 l/m 0,0 km/h (0 Bft) NO 41 0 min 0,000 mm 0,0 UV-I 46 W/m 15,2 C 18,3 C 0,0 km/h (0 Bft) 0,00 %
13.07.2015 17:10 18,3 C 81 % 1015,9 hPa 0,0 l/m 0,0 km/h (0 Bft) NO 40 0 min 0,000 mm 1,0 UV-I 50 W/m 15,0 C 18,3 C 0,0 km/h (0 Bft) 0,00 %
13.07.2015 17:15 18,4 C 75 % 1016,0 hPa 0,0 l/m 5,4 km/h (1 Bft) W-NW 290 0 min 0,000 mm 1,0 UV-I 57 W/m 13,9 C 18,4 C 7,9 km/h (2 Bft) 0,00 %
13.07.2015 17:20 18,4 C 76 % 1016,0 hPa 0,0 l/m 0,0 km/h (0 Bft) N-NW 341 0 min 0,000 mm 1,0 UV-I 64 W/m 14,1 C 18,4 C 0,0 km/h (0 Bft) 0,00 %
13.07.2015 17:25 18,5 C 74 % 1015,9 hPa 0,0 l/m 1,4 km/h (1 Bft) W-SW 256 0 min 0,000 mm 0,0 UV-I 62 W/m 13,8 C 18,5 C 4,0 km/h (1 Bft) 0,00 %
13.07.2015 17:30 18,5 C 72 % 1015,9 hPa 0,0 l/m 0,0 km/h (0 Bft) N-NO 30 0 min 0,000 mm 0,0 UV-I 56 W/m 13,4 C 18,5 C 0,0 km/h (0 Bft) 0,00 %
13.07.2015 17:35 18,4 C 72 % 1015,8 hPa 0,0 l/m 0,4 km/h (0 Bft) S-SW 212 0 min 0,000 mm 0,0 UV-I 52 W/m 13,3 C 18,4 C 4,0 km/h (1 Bft) 0,00 %
13.07.2015 17:40 18,4 C 71 % 1015,6 hPa 0,0 l/m 0,4 km/h (0 Bft) N 354 0 min 0,000 mm 0,0 UV-I 38 W/m 13,0 C 18,4 C 4,0 km/h (1 Bft) 0,00 %
13.07.2015 17:45 18,3 C 71 % 1015,6 hPa 0,0 l/m 0,4 km/h (0 Bft) W-SW 256 0 min 0,000 mm 0,0 UV-I 36 W/m 12,9 C 18,3 C 4,0 km/h (1 Bft) 0,00 %
13.07.2015 17:50 18,2 C 71 % 1015,7 hPa 0,0 l/m 4,0 km/h (1 Bft) W-NW 284 0 min 0,000 mm 0,0 UV-I 29 W/m 12,9 C 18,2 C 7,9 km/h (2 Bft) 0,00 %
13.07.2015 17:55 18,2 C 72 % 1015,7 hPa 0,0 l/m 0,4 km/h (0 Bft) N-NW 344 0 min 0,000 mm 0,0 UV-I 36 W/m 13,1 C 18,2 C 4,0 km/h (1 Bft) 0,00 %
13.07.2015 18:00 18,2 C 73 % 1015,7 hPa 0,0 l/m 2,2 km/h (1 Bft) NW 305 0 min 0,000 mm 0,0 UV-I 49 W/m 13,3 C 18,2 C 4,0 km/h (1 Bft) 0,00 %
13.07.2015 18:05 18,1 C 74 % 1015,8 hPa 0,0 l/m 0,0 km/h (0 Bft) O-NO 69 0 min 0,000 mm 0,0 UV-I 60 W/m 13,4 C 18,1 C 0,0 km/h (0 Bft) 0,00 %
13.07.2015 18:10 18,0 C 77 % 1015,7 hPa 0,0 l/m 0,0 km/h (0 Bft) NO 45 0 min 0,000 mm 0,0 UV-I 30 W/m 13,9 C 18,0 C 0,0 km/h (0 Bft) 0,00 %
13.07.2015 18:15 17,8 C 77 % 1015,9 hPa 0,0 l/m 3,2 km/h (1 Bft) W-NW 302 0 min 0,000 mm 0,0 UV-I 19 W/m 13,7 C 17,8 C 4,0 km/h (1 Bft) 0,00 %
13.07.2015 18:20 17,7 C 78 % 1016,1 hPa 0,3 l/m 0,0 km/h (0 Bft) N 352 0 min 0,000 mm 0,0 UV-I 10 W/m 13,8 C 17,7 C 0,0 km/h (0 Bft) 0,00 %
13.07.2015 18:25 17,6 C 79 % 1016,0 hPa 0,0 l/m 0,4 km/h (0 Bft) NO 39 0 min 0,000 mm 0,0 UV-I 4 W/m 13,9 C 17,6 C 4,0 km/h (1 Bft) 0,00 %
13.07.2015 18:30 17,5 C 78 % 1016,1 hPa 0,0 l/m 2,9 km/h (1 Bft) W-NW 284 0 min 0,000 mm 0,0 UV-I 0 W/m 13,6 C 17,5 C 4,0 km/h (1 Bft) 0,00 %
13.07.2015 18:35 17,5 C 77 % 1016,1 hPa 0,0 l/m 7,9 km/h (2 Bft) W-NW 293 0 min 0,000 mm 0,0 UV-I 1 W/m 13,4 C 16,8 C 11,9 km/h (2 Bft) 0,00 %
13.07.2015 18:40 17,5 C 78 % 1016,1 hPa 0,0 l/m 0,7 km/h (0 Bft) W-NW 286 0 min 0,000 mm 0,0 UV-I 5 W/m 13,6 C 17,5 C 4,0 km/h (1 Bft) 0,00 %
13.07.2015 18:45 17,5 C 79 % 1016,3 hPa 0,0 l/m 2,2 km/h (1 Bft) NW 308 0 min 0,000 mm 0,0 UV-I 7 W/m 13,8 C 17,5 C 4,0 km/h (1 Bft) 0,00 %
13.07.2015 18:50 17,5 C 81 % 1016,4 hPa 0,0 l/m 3,2 km/h (1 Bft) W-NW 291 0 min 0,000 mm 0,0 UV-I 1 W/m 14,2 C 17,5 C 4,0 km/h (1 Bft) 0,00 %
13.07.2015 18:55 17,4 C 81 % 1016,4 hPa 0,0 l/m 0,4 km/h (0 Bft) N-NW 345 0 min 0,000 mm 0,0 UV-I 11 W/m 14,1 C 17,4 C 4,0 km/h (1 Bft) 0,00 %
13.07.2015 19:00 17,3 C 82 % 1016,4 hPa 0,0 l/m 0,0 km/h (0 Bft) W 278 0 min 0,000 mm 0,0 UV-I 18 W/m 14,2 C 17,3 C 0,0 km/h (0 Bft) 0,00 %
13.07.2015 19:05 17,2 C 82 % 1016,7 hPa 0,0 l/m 6,5 km/h (2 Bft) W-NW 285 0 min 0,000 mm 0,0 UV-I 0 W/m 14,1 C 17,2 C 7,9 km/h (2 Bft) 0,00 %
13.07.2015 19:10 17,1 C 82 % 1016,7 hPa 0,0 l/m 0,7 km/h (0 Bft) N-NW 327 0 min 0,000 mm 0,0 UV-I 0 W/m 14,0 C 17,1 C 4,0 km/h (1 Bft) 0,00 %
13.07.2015 19:15 17,1 C 83 % 1016,7 hPa 0,0 l/m 0,0 km/h (0 Bft) N 355 0 min 0,000 mm 0,0 UV-I 0 W/m 14,2 C 17,1 C 0,0 km/h (0 Bft) 0,00 %
13.07.2015 19:20 17,0 C 83 % 1016,8 hPa 0,0 l/m 0,0 km/h (0 Bft) N-NW 344 0 min 0,000 mm 0,0 UV-I 0 W/m 14,1 C 17,0 C 0,0 km/h (0 Bft) 0,00 %
13.07.2015 19:25 16,8 C 84 % 1016,8 hPa 0,0 l/m 0,0 km/h (0 Bft) NO 54 0 min 0,000 mm 0,0 UV-I 0 W/m 14,1 C 16,8 C 0,0 km/h (0 Bft) 0,00 %
13.07.2015 19:30 16,7 C 86 % 1016,9 hPa 0,0 l/m 0,0 km/h (0 Bft) NO 39 0 min 0,000 mm 0,0 UV-I 0 W/m 14,3 C 16,7 C 0,0 km/h (0 Bft) 0,00 %
13.07.2015 19:35 16,6 C 87 % 1016,9 hPa 0,0 l/m 0,0 km/h (0 Bft) W-SW 251 0 min 0,000 mm 0,0 UV-I 0 W/m 14,4 C 16,6 C 0,0 km/h (0 Bft) 0,00 %
13.07.2015 19:40 16,5 C 87 % 1017,0 hPa 0,0 l/m 0,4 km/h (0 Bft) W 266 0 min 0,000 mm 0,0 UV-I 0 W/m 14,3 C 16,5 C 4,0 km/h (1 Bft) 0,00 %
13.07.2015 19:45 16,3 C 87 % 1017,0 hPa 0,0 l/m 0,0 km/h (0 Bft) NO 38 0 min 0,000 mm 0,0 UV-I 0 W/m 14,1 C 16,3 C 0,0 km/h (0 Bft) 0,00 %
13.07.2015 19:50 16,2 C 87 % 1017,1 hPa 0,0 l/m 2,9 km/h (1 Bft) W-SW 255 0 min 0,000 mm 0,0 UV-I 0 W/m 14,0 C 16,2 C 4,0 km/h (1 Bft) 0,00 %
13.07.2015 19:55 16,2 C 87 % 1017,0 hPa 0,0 l/m 0,0 km/h (0 Bft) N 355 0 min 0,000 mm 0,0 UV-I 0 W/m 14,0 C 16,2 C 0,0 km/h (0 Bft) 0,00 %
13.07.2015 20:00 16,2 C 88 % 1017,1 hPa 0,0 l/m 0,0 km/h (0 Bft) N-NW 347 0 min 0,000 mm 0,0 UV-I 0 W/m 14,2 C 16,2 C 0,0 km/h (0 Bft) 0,00 %
13.07.2015 20:05 16,2 C 88 % 1017,1 hPa 0,0 l/m 0,0 km/h (0 Bft) NO 45 0 min 0,000 mm 0,0 UV-I 0 W/m 14,2 C 16,2 C 0,0 km/h (0 Bft) 0,00 %
13.07.2015 20:10 16,2 C 88 % 1016,9 hPa 0,0 l/m 0,0 km/h (0 Bft) NO 47 0 min 0,000 mm 0,0 UV-I 0 W/m 14,2 C 16,2 C 0,0 km/h (0 Bft) 0,00 %
13.07.2015 20:15 16,1 C 88 % 1017,2 hPa 0,0 l/m 0,0 km/h (0 Bft) NO 41 0 min 0,000 mm 0,0 UV-I 0 W/m 14,1 C 16,1 C 0,0 km/h (0 Bft) 0,00 %
13.07.2015 20:20 16,1 C 88 % 1017,2 hPa 0,0 l/m 0,0 km/h (0 Bft) NO 36 0 min 0,000 mm 0,0 UV-I 0 W/m 14,1 C 16,1 C 0,0 km/h (0 Bft) 0,00 %
13.07.2015 20:25 16,1 C 89 % 1017,3 hPa 0,0 l/m 0,0 km/h (0 Bft) NO 49 0 min 0,000 mm 0,0 UV-I 0 W/m 14,3 C 16,1 C 0,0 km/h (0 Bft) 0,00 %
13.07.2015 20:30 16,1 C 90 % 1017,1 hPa 0,0 l/m 0,0 km/h (0 Bft) NO 41 0 min 0,000 mm 0,0 UV-I 0 W/m 14,5 C 16,1 C 0,0 km/h (0 Bft) 0,00 %
13.07.2015 20:35 16,0 C 90 % 1017,3 hPa 0,0 l/m 0,0 km/h (0 Bft) NO 38 0 min 0,000 mm 0,0 UV-I 0 W/m 14,4 C 16,0 C 0,0 km/h (0 Bft) 0,00 %
13.07.2015 20:40 16,0 C 90 % 1017,3 hPa 0,0 l/m 4,0 km/h (1 Bft) W-SW 256 0 min 0,000 mm 0,0 UV-I 0 W/m 14,4 C 16,0 C 4,0 km/h (1 Bft) 0,00 %
13.07.2015 20:45 15,9 C 91 % 1017,4 hPa 0,0 l/m 0,0 km/h (0 Bft) NO 35 0 min 0,000 mm 0,0 UV-I 0 W/m 14,4 C 15,9 C 0,0 km/h (0 Bft) 0,00 %
13.07.2015 20:50 15,9 C 91 % 1017,3 hPa 0,0 l/m 0,0 km/h (0 Bft) N-NO 29 0 min 0,000 mm 0,0 UV-I 0 W/m 14,4 C 15,9 C 0,0 km/h (0 Bft) 0,00 %
13.07.2015 20:55 15,9 C 92 % 1017,6 hPa 0,0 l/m 0,0 km/h (0 Bft) N-NW 336 0 min 0,000 mm 0,0 UV-I 0 W/m 14,6 C 15,9 C 0,0 km/h (0 Bft) 0,00 %
13.07.2015 21:00 15,9 C 92 % 1017,5 hPa 0,0 l/m 0,0 km/h (0 Bft) W 277 0 min 0,000 mm 0,0 UV-I 0 W/m 14,6 C 15,9 C 0,0 km/h (0 Bft) 0,00 %
13.07.2015 21:05 15,9 C 92 % 1017,6 hPa 0,0 l/m 0,0 km/h (0 Bft) NO 42 0 min 0,000 mm 0,0 UV-I 0 W/m 14,6 C 15,9 C 0,0 km/h (0 Bft) 0,00 %
13.07.2015 21:10 15,8 C 92 % 1017,5 hPa 0,0 l/m 2,9 km/h (1 Bft) W 267 0 min 0,000 mm 0,0 UV-I 0 W/m 14,5 C 15,8 C 4,0 km/h (1 Bft) 0,00 %
13.07.2015 21:15 15,8 C 91 % 1017,5 hPa 0,0 l/m 0,0 km/h (0 Bft) SW 228 0 min 0,000 mm 0,0 UV-I 0 W/m 14,3 C 15,8 C 0,0 km/h (0 Bft) 0,00 %
13.07.2015 21:20 15,8 C 91 % 1017,5 hPa 0,0 l/m 0,0 km/h (0 Bft) NO 46 0 min 0,000 mm 0,0 UV-I 0 W/m 14,3 C 15,8 C 0,0 km/h (0 Bft) 0,00 %
13.07.2015 21:25 15,7 C 91 % 1017,6 hPa 0,0 l/m 3,2 km/h (1 Bft) W-SW 251 0 min 0,000 mm 0,0 UV-I 0 W/m 14,2 C 15,7 C 7,9 km/h (2 Bft) 0,00 %
13.07.2015 21:30 15,7 C 91 % 1017,6 hPa 0,0 l/m 0,0 km/h (0 Bft) N 351 0 min 0,000 mm 0,0 UV-I 0 W/m 14,2 C 15,7 C 0,0 km/h (0 Bft) 0,00 %
13.07.2015 21:35 15,7 C 91 % 1017,7 hPa 0,0 l/m 2,2 km/h (1 Bft) W-SW 256 0 min 0,000 mm 0,0 UV-I 0 W/m 14,2 C 15,7 C 4,0 km/h (1 Bft) 0,00 %
13.07.2015 21:40 15,7 C 91 % 1017,6 hPa 0,0 l/m 0,7 km/h (0 Bft) NW 315 0 min 0,000 mm 0,0 UV-I 0 W/m 14,2 C 15,7 C 4,0 km/h (1 Bft) 0,00 %
13.07.2015 21:45 15,7 C 91 % 1017,6 hPa 0,0 l/m 0,0 km/h (0 Bft) N 354 0 min 0,000 mm 0,0 UV-I 0 W/m 14,2 C 15,7 C 0,0 km/h (0 Bft) 0,00 %
13.07.2015 21:50 15,7 C 91 % 1017,7 hPa 0,0 l/m 0,0 km/h (0 Bft) N-NW 348 0 min 0,000 mm 0,0 UV-I 0 W/m 14,2 C 15,7 C 0,0 km/h (0 Bft) 0,00 %
13.07.2015 21:55 15,7 C 92 % 1017,6 hPa 0,0 l/m 0,0 km/h (0 Bft) NO 55 0 min 0,000 mm 0,0 UV-I 0 W/m 14,4 C 15,7 C 0,0 km/h (0 Bft) 0,00 %
13.07.2015 22:00 15,7 C 92 % 1017,6 hPa 0,0 l/m 0,0 km/h (0 Bft) NO 44 0 min 0,000 mm 0,0 UV-I 0 W/m 14,4 C 15,7 C 0,0 km/h (0 Bft) 0,00 %
13.07.2015 22:05 15,7 C 92 % 1017,7 hPa 0,0 l/m 0,0 km/h (0 Bft) NO 42 0 min 0,000 mm 0,0 UV-I 0 W/m 14,4 C 15,7 C 0,0 km/h (0 Bft) 0,00 %
13.07.2015 22:10 15,8 C 92 % 1017,4 hPa 0,0 l/m 0,0 km/h (0 Bft) N-NO 17 0 min 0,000 mm 0,0 UV-I 0 W/m 14,5 C 15,8 C 0,0 km/h (0 Bft) 0,00 %
13.07.2015 22:15 15,8 C 92 % 1017,5 hPa 0,0 l/m 0,0 km/h (0 Bft) N-NO 33 0 min 0,000 mm 0,0 UV-I 0 W/m 14,5 C 15,8 C 0,0 km/h (0 Bft) 0,00 %
13.07.2015 22:20 15,8 C 92 % 1017,6 hPa 0,0 l/m 0,4 km/h (0 Bft) N-NO 25 0 min 0,000 mm 0,0 UV-I 0 W/m 14,5 C 15,8 C 4,0 km/h (1 Bft) 0,00 %
13.07.2015 22:25 15,8 C 92 % 1017,5 hPa 0,0 l/m 0,0 km/h (0 Bft) N-NW 340 0 min 0,000 mm 0,0 UV-I 0 W/m 14,5 C 15,8 C 0,0 km/h (0 Bft) 0,00 %
13.07.2015 22:30 15,8 C 92 % 1017,5 hPa 0,0 l/m 0,0 km/h (0 Bft) NO 42 0 min 0,000 mm 0,0 UV-I 0 W/m 14,5 C 15,8 C 0,0 km/h (0 Bft) 0,00 %
13.07.2015 22:35 15,9 C 92 % 1017,6 hPa 0,0 l/m 0,0 km/h (0 Bft) NO 38 0 min 0,000 mm 0,0 UV-I 0 W/m 14,6 C 15,9 C 0,0 km/h (0 Bft) 0,00 %
13.07.2015 22:40 15,9 C 92 % 1017,5 hPa 0,0 l/m 0,0 km/h (0 Bft) NO 43 0 min 0,000 mm 0,0 UV-I 0 W/m 14,6 C 15,9 C 0,0 km/h (0 Bft) 0,00 %
13.07.2015 22:45 15,9 C 92 % 1017,4 hPa 0,0 l/m 0,0 km/h (0 Bft) N 354 0 min 0,000 mm 0,0 UV-I 0 W/m 14,6 C 15,9 C 0,0 km/h (0 Bft) 0,00 %
13.07.2015 23:00 15,9 C 92 % 1017,3 hPa 0,0 l/m 0,0 km/h (0 Bft) W-NW 302 0 min 0,000 mm 0,0 UV-I 0 W/m 14,6 C 15,9 C 0,0 km/h (0 Bft) 0,00 %
13.07.2015 23:10 15,9 C 92 % 1017,4 hPa 0,0 l/m 0,0 km/h (0 Bft) N-NW 340 0 min 0,000 mm 0,0 UV-I 0 W/m 14,6 C 15,9 C 0,0 km/h (0 Bft) 0,00 %
13.07.2015 23:20 15,9 C 92 % 1017,3 hPa 0,0 l/m 0,0 km/h (0 Bft) O-NO 75 0 min 0,000 mm 0,0 UV-I 0 W/m 14,6 C 15,9 C 0,0 km/h (0 Bft) 0,00 %
13.07.2015 23:30 15,9 C 92 % 1017,3 hPa 0,0 l/m 0,4 km/h (0 Bft) W-SW 256 0 min 0,000 mm 0,0 UV-I 0 W/m 14,6 C 15,9 C 4,0 km/h (1 Bft) 0,00 %
13.07.2015 23:40 15,9 C 92 % 1017,3 hPa 0,0 l/m 2,9 km/h (1 Bft) W-NW 292 0 min 0,000 mm 0,0 UV-I 0 W/m 14,6 C 15,9 C 4,0 km/h (1 Bft) 0,00 %
13.07.2015 23:50 15,9 C 91 % 1017,2 hPa 0,0 l/m 0,0 km/h (0 Bft) N-NO 16 0 min 0,000 mm 0,0 UV-I 0 W/m 14,4 C 15,9 C 0,0 km/h (0 Bft) 0,00 %
_ Min-Zeit 21:25 00:45 00:15 - 00:10 - - - - - - 00:45 07:50 00:10 00:00
Minimum _ 15,7 C 49 % 1013,3 hPa - 0,0 km/h (0 Bft) - - - - - - 9,5 C 14,9 C 0,0 km/h (0 Bft) 0,00 %
_ Max-Zeit 00:55 20:55 21:35 18:20 07:50 - - 12:00 00:00 12:20 12:00 17:05 00:55 01:05 00:00
Maximum _ 20,8 C 92 % 1017,7 hPa 0,3 l/m 13,0 km/h
W-NW (3 Bft)
- - 5 min 0,000 mm 3,0 UV-I 572 W/m 15,2 C 20,8 C 15,8 km/h
W-SW (3 Bft)
0,00 %
Durchschnitt _ 17,9 C 70 % 1016,2 hPa #0,3 l/m 1,9 km/h (1 Bft) W-SW - #10 min. #0,000 mm 1,2 UV-I 134 W/m 12,2 C 17,8 C 3,9 km/h (1 Bft) 0,00 %